Weather History for Belleville, IL

Change the Weather History Date:

Wednesday, November 6, 2013

  Actual Average Record
Temperature  
Mean Temperature 48 °F -  
Max Temperature 59 °F 57 °F 78 °F (1999)
Min Temperature 35 °F 35 °F 22 °F (1973)
Degree Days  
Heating Degree Days 18    
Moisture  
Dew Point 52 °F    
Average Humidity 96    
Maximum Humidity 100    
Minimum Humidity 79    
Precipitation  
Precipitation 0.51 in - - ()
Sea Level Pressure  
Sea Level Pressure 30.02 in    
Wind  
Wind Speed 15 mph (SSW)    
Max Wind Speed 23 mph    
Max Gust Speed 29 mph    
Visibility 8 miles    
Events Rain    
Averages and records for this station are not official NWS values.
T = Trace of Precipitation, MM = Missing Value Source: NWS Daily Summary

Daily Weather History Graph

Daily Weather History Graph

Search for Another Location

Airport:

Trip Planner

Search our weather history database for the weather conditions in past years. The results will help you decide how hot, cold, wet, or windy it might be!

Date:

Astronomy

Nov. 06, 2013 Rise Set
Actual Time 6:31 AM CST 4:53 PM CST
Civil Twilight 6:03 AM CST 5:21 PM CST
Nautical Twilight 5:32 AM CST 5:53 PM CST
Astronomical Twilight 5:01 AM CST 6:24 PM CST
Moon 9:45 AM CST (11/6) 7:59 PM CST (11/6)
Length of Visible Light 11h 17m
Length of Day
10h 22m
Waxing Crescent, 14% of the Moon is Illuminated
Nov 6
Waxing Crescent
Nov 9
First Quarter
Nov 17
Full
Nov 25
Last Quarter
Dec 2
New

Hourly Weather History & Observations

Time (CST) Temp. Windchill Dew Point Humidity Pressure Visibility Wind Dir Wind Speed Gust Speed Precip Events Conditions
12:00 AM 57.2 °F - 57.2 °F 100% 30.03 in 8.0 mi SSE 15.0 mph - N/A   Light Drizzle
12:10 AM 57.2 °F - 57.2 °F 100% 30.03 in 10.0 mi SSE 12.7 mph - N/A   Light Drizzle
12:20 AM 57.2 °F - 57.2 °F 100% 30.03 in 10.0 mi SSE 10.4 mph - N/A Rain Light Rain
12:25 AM 57.2 °F - 57.2 °F 100% 30.02 in 10.0 mi SSE 10.4 mph - N/A   Light Drizzle
12:29 AM 57.2 °F - 57.2 °F 100% 30.02 in 10.0 mi SSE 12.7 mph - N/A   Scattered Clouds
12:31 AM 57.2 °F - 57.2 °F 100% 30.02 in 10.0 mi SSE 10.4 mph - N/A Rain Light Rain
12:58 AM 56.7 °F - 56.5 °F 99% 30.01 in 10.0 mi SSE 13.8 mph 20.7 mph 0.02 in Rain Light Rain
1:34 AM 57.2 °F - 55.4 °F 94% 29.98 in 10.0 mi SSE 15.0 mph 21.9 mph N/A   Partly Cloudy
1:58 AM 57.4 °F - 55.2 °F 92% 29.98 in 10.0 mi South 12.7 mph - 0.01 in   Clear
2:30 AM 57.2 °F - 55.4 °F 94% 29.97 in 10.0 mi South 13.8 mph 20.7 mph N/A   Light Drizzle
2:45 AM 57.2 °F - 55.4 °F 94% 29.96 in 10.0 mi SSE 15.0 mph - N/A Rain Light Rain
2:49 AM 57.2 °F - 55.4 °F 94% 29.96 in 10.0 mi South 13.8 mph 21.9 mph N/A   Mostly Cloudy
2:54 AM 57.2 °F - 55.4 °F 94% 29.95 in 9.0 mi SSE 15.0 mph 21.9 mph N/A   Mostly Cloudy
2:58 AM 56.8 °F - 55.0 °F 94% 29.96 in 9.0 mi South 18.4 mph 21.9 mph 0.01 in   Overcast
3:03 AM 57.2 °F - 55.4 °F 94% 29.95 in 10.0 mi South 16.1 mph - N/A   Overcast
3:18 AM 57.2 °F - 55.4 °F 94% 29.96 in 9.0 mi South 15.0 mph - N/A   Overcast
3:28 AM 57.2 °F - 55.4 °F 94% 29.96 in 9.0 mi South 15.0 mph 24.2 mph N/A   Overcast
3:34 AM 57.2 °F - 55.4 °F 94% 29.96 in 9.0 mi South 15.0 mph - N/A Rain Light Rain
3:58 AM 57.2 °F - 56.1 °F 96% 29.97 in 10.0 mi South 18.4 mph 25.3 mph 0.06 in Rain Light Rain
4:03 AM 57.2 °F - 55.4 °F 94% 29.96 in 10.0 mi South 17.3 mph 25.3 mph N/A Rain Light Rain
4:08 AM 57.2 °F - 55.4 °F 94% 29.97 in 10.0 mi South 16.1 mph 25.3 mph N/A Rain Light Rain
4:35 AM 57.2 °F - 55.4 °F 94% 29.94 in 10.0 mi SSE 17.3 mph 28.8 mph N/A   Mostly Cloudy
4:36 AM 57.2 °F - 55.4 °F 94% 29.94 in 10.0 mi SSE 18.4 mph 28.8 mph N/A Rain Light Rain
4:46 AM 57.2 °F - 55.4 °F 94% 29.94 in 9.0 mi South 18.4 mph 27.6 mph N/A   Mostly Cloudy
4:54 AM 57.2 °F - 55.4 °F 94% 29.94 in 8.0 mi South 20.7 mph 26.5 mph N/A Rain Light Rain
4:58 AM 56.5 °F - 56.1 °F 99% 29.95 in 9.0 mi South 20.7 mph 26.5 mph 0.02 in Rain Light Rain
5:23 AM 55.4 °F - 55.4 °F 100% 29.96 in 6.0 mi South 16.1 mph 23.0 mph N/A Rain Rain
5:28 AM 55.4 °F - 55.4 °F 100% 29.95 in 4.0 mi South 16.1 mph 21.9 mph N/A Rain Rain
5:43 AM 55.4 °F - 55.4 °F 100% 29.95 in 3.0 mi South 16.1 mph - N/A Rain Rain
5:48 AM 55.4 °F - 55.4 °F 100% 29.94 in 2.5 mi South 16.1 mph 21.9 mph N/A Rain Rain
5:53 AM 55.4 °F - 55.4 °F 100% 29.94 in 2.0 mi South 13.8 mph 21.9 mph N/A Rain Rain
5:58 AM 55.4 °F - 55.0 °F 99% 29.94 in 2.5 mi SSE 18.4 mph - 0.23 in Rain Light Rain
6:00 AM 55.4 °F - 55.4 °F 100% 29.93 in 3.0 mi SSE 16.1 mph - N/A   Overcast
6:12 AM 55.4 °F - 55.4 °F 100% 29.94 in 5.0 mi South 18.4 mph 24.2 mph N/A Rain Light Rain
6:17 AM 55.4 °F - 55.4 °F 100% 29.93 in 4.0 mi South 18.4 mph 24.2 mph N/A Rain Heavy Rain
6:22 AM 55.4 °F - 55.4 °F 100% 29.93 in 3.0 mi SSE 18.4 mph 24.2 mph N/A Rain Light Rain
6:27 AM 55.4 °F - 55.4 °F 100% 29.94 in 4.0 mi South 15.0 mph 24.2 mph N/A   Overcast
6:32 AM 55.4 °F - 55.4 °F 100% 29.93 in 4.0 mi South 15.0 mph 24.2 mph N/A   Overcast
6:37 AM 55.4 °F - 55.4 °F 100% 29.94 in 3.0 mi South 15.0 mph 21.9 mph N/A   Overcast
6:39 AM 55.4 °F - 55.4 °F 100% 29.94 in 3.0 mi South 16.1 mph 21.9 mph N/A Rain Light Rain
6:49 AM 55.4 °F - 55.4 °F 100% 29.95 in 9.0 mi South 15.0 mph 24.2 mph N/A Rain Light Rain
6:54 AM 55.4 °F - 55.4 °F 100% 29.96 in 4.0 mi South 16.1 mph 23.0 mph N/A Rain Light Rain
6:58 AM 55.2 °F - 54.9 °F 99% 29.97 in 2.5 mi South 15.0 mph - 0.15 in Rain Light Rain
6:59 AM 55.4 °F - 55.4 °F 100% 29.96 in 2.5 mi South 13.8 mph - N/A   Overcast
7:01 AM 55.4 °F - 55.4 °F 100% 29.96 in 2.5 mi South 15.0 mph - N/A Rain Light Rain
7:06 AM 55.4 °F - 55.4 °F 100% 29.97 in 4.0 mi South 15.0 mph 21.9 mph N/A Rain Light Rain
7:11 AM 55.4 °F - 55.4 °F 100% 29.97 in 7.0 mi South 15.0 mph 24.2 mph N/A   Light Drizzle
7:21 AM 55.4 °F - 55.4 °F 100% 29.97 in 10.0 mi South 12.7 mph 21.9 mph N/A   Overcast
7:58 AM 55.4 °F - 55.0 °F 99% 29.98 in 10.0 mi South 11.5 mph - 0.01 in   Overcast
8:18 AM 55.4 °F - 55.4 °F 100% 29.96 in 7.0 mi South 12.7 mph - N/A   Overcast
8:43 AM 55.4 °F - 55.4 °F 100% 29.95 in 10.0 mi South 11.5 mph - N/A   Overcast
8:58 AM 56.5 °F - 56.3 °F 99% 29.96 in 10.0 mi South 16.1 mph - N/A   Overcast
9:18 AM 57.2 °F - 57.2 °F 100% 29.94 in 10.0 mi South 12.7 mph - N/A   Mostly Cloudy
9:43 AM 59.0 °F - 57.2 °F 94% 29.95 in 10.0 mi South 12.7 mph - N/A   Mostly Cloudy
9:53 AM 59.0 °F - 59.0 °F 100% 29.96 in 10.0 mi South 13.8 mph - N/A   Mostly Cloudy
9:58 AM 59.2 °F - 59.0 °F 99% 29.98 in 10.0 mi SSW 13.8 mph - N/A   Mostly Cloudy
10:40 AM 59.0 °F - 59.0 °F 100% 30.00 in 10.0 mi West 18.4 mph 26.5 mph N/A   Overcast
10:45 AM 57.2 °F - 55.4 °F 94% 30.00 in 10.0 mi NW 23.0 mph 27.6 mph N/A   Overcast
10:58 AM 52.7 °F - 51.8 °F 97% 30.02 in 10.0 mi NW 13.8 mph - N/A   Overcast
11:09 AM 51.8 °F - 51.8 °F 100% 30.02 in 10.0 mi NW 17.3 mph - N/A   Light Drizzle
11:14 AM 51.8 °F - 50.0 °F 94% 30.03 in 10.0 mi NW 19.6 mph - N/A   Light Drizzle
11:19 AM 50.0 °F - 50.0 °F 100% 30.03 in 10.0 mi NW 17.3 mph 25.3 mph N/A   Overcast
11:34 AM 50.0 °F - 50.0 °F 100% 30.03 in 10.0 mi WNW 17.3 mph 24.2 mph N/A   Overcast
11:39 AM 50.0 °F - 50.0 °F 100% 30.03 in 10.0 mi WNW 11.5 mph 24.2 mph N/A   Overcast
11:51 AM 50.0 °F - 48.2 °F 94% 30.04 in 10.0 mi WNW 13.8 mph - N/A Rain Light Rain
11:58 AM 48.9 °F - 48.7 °F 99% 30.05 in 10.0 mi WNW 13.8 mph - 0.00 in Rain Light Rain
12:41 PM 46.4 °F 39.2 °F 46.4 °F 100% 30.04 in 10.0 mi WNW 18.4 mph 24.2 mph N/A   Overcast
12:47 PM 46.4 °F 40.1 °F 46.4 °F 100% 30.06 in 10.0 mi WNW 15.0 mph 24.2 mph N/A   Light Drizzle
12:57 PM 46.4 °F 40.1 °F 46.4 °F 100% 30.06 in 10.0 mi WNW 15.0 mph - N/A   Overcast
12:58 PM 46.4 °F 40.1 °F 46.0 °F 99% 30.07 in 10.0 mi WNW 15.0 mph - 0.00 in   Overcast
1:18 PM 46.4 °F 40.4 °F 46.4 °F 100% 30.06 in 10.0 mi NW 13.8 mph 21.9 mph N/A   Overcast
1:53 PM 44.6 °F 36.9 °F 44.6 °F 100% 30.08 in 10.0 mi NW 18.4 mph - N/A   Overcast
1:58 PM 45.0 °F 37.6 °F 44.4 °F 98% 30.09 in 10.0 mi WNW 17.3 mph 26.5 mph 0.00 in   Overcast
2:13 PM 44.6 °F 38.1 °F 42.8 °F 93% 30.09 in 10.0 mi WNW 13.8 mph 23.0 mph N/A   Overcast
2:58 PM 44.2 °F 37.3 °F 41.7 °F 91% 30.12 in 10.0 mi WNW 15.0 mph - N/A   Overcast
3:32 PM 42.8 °F 35.8 °F 41.0 °F 93% 30.12 in 10.0 mi NW 13.8 mph 23.0 mph N/A   Overcast
3:43 PM 42.8 °F 35.8 °F 41.0 °F 93% 30.12 in 10.0 mi NW 13.8 mph 21.9 mph N/A   Overcast
3:58 PM 43.7 °F 36.6 °F 41.0 °F 90% 30.15 in 10.0 mi NW 15.0 mph 19.6 mph 0.00 in   Overcast
4:18 PM 44.6 °F 39.2 °F 41.0 °F 87% 30.14 in 10.0 mi NW 10.4 mph - N/A   Overcast
4:58 PM 44.4 °F 37.9 °F 40.3 °F 85% 30.17 in 10.0 mi NW 13.8 mph 20.7 mph N/A   Overcast
5:58 PM 44.2 °F 39.7 °F 38.1 °F 79% 30.21 in 10.0 mi NNW 8.1 mph - N/A   Overcast
6:33 PM 44.6 °F 40.2 °F 39.2 °F 81% 30.21 in 10.0 mi NNW 8.1 mph - N/A   Overcast
6:58 PM 43.7 °F 38.1 °F 38.3 °F 81% 30.22 in 10.0 mi NW 10.4 mph - N/A   Mostly Cloudy
7:58 PM 42.4 °F 38.1 °F 38.3 °F 85% 30.24 in 10.0 mi NW 6.9 mph - N/A   Mostly Cloudy
8:58 PM 38.7 °F 32.4 °F 36.1 °F 91% 30.24 in 10.0 mi NW 9.2 mph - N/A   Clear
9:58 PM 37.6 °F 33.1 °F 34.9 °F 90% 30.27 in 10.0 mi NW 5.8 mph - N/A   Clear
10:58 PM 36.3 °F 30.1 °F 34.5 °F 93% 30.27 in 10.0 mi NW 8.1 mph - N/A   Clear
11:58 PM 35.2 °F 29.5 °F 34.2 °F 96% 30.28 in 10.0 mi NW 6.9 mph - N/A   Clear